Weather History for Mackall AAF, NC

Change the Weather History Date:

Sunday, October 28, 2012

  Actual Average Record
Temperature  
Mean Temperature 63 °F -  
Max Temperature 60 °F 68 °F 83 °F (2014)
Min Temperature 57 °F 46 °F 33 °F (1999)
Degree Days  
Heating Degree Days 2    
Growing Degree Days 13 (Base 50)    
Moisture  
Dew Point 49 °F    
Average Humidity 61    
Maximum Humidity 74    
Minimum Humidity 50    
Precipitation  
Precipitation 0.00 in - - ()
Sea Level Pressure  
Sea Level Pressure 29.62 in    
Wind  
Wind Speed 14 mph (North)    
Max Wind Speed 18 mph    
Max Gust Speed 30 mph    
Visibility 10 miles    
Events      
Averages and records for this station are not official NWS values.
T = Trace of Precipitation, MM = Missing Value Source: NWS Daily Summary

Daily Weather History Graph

Daily Weather History Graph

Search for Another Location

Airport:

Trip Planner

Search our weather history database for the weather conditions in past years. The results will help you decide how hot, cold, wet, or windy it might be!

Date:

Astronomy

Oct. 28, 2012 Rise Set
Actual Time 7:35 AM EDT 6:27 PM EDT
Civil Twilight 7:09 AM EDT 6:53 PM EDT
Nautical Twilight 6:39 AM EDT 7:22 PM EDT
Astronomical Twilight 6:10 AM EDT 7:52 PM EDT
Moon 5:43 PM EDT 6:28 AM EDT
Length of Visible Light 11h 43m
Length of Day
10h 51m
Waxing Gibbous, 99% of the Moon is Illuminated
Oct 28
Waxing Gibbous
Oct 29
Full
Nov 6
Last Quarter
Nov 13
New
Nov 20
First Quarter

Hourly Weather History & Observations

Time (EDT) Temp. Dew Point Humidity Pressure Visibility Wind Dir Wind Speed Gust Speed Precip Events Conditions
1:55 AM 61.7 °F 53.2 °F 74% 29.65 in 10.0 mi North 17.3 mph 26.5 mph N/A   Mostly Cloudy
2:55 AM 61.2 °F 52.5 °F 73% 29.65 in 10.0 mi North 13.8 mph 27.6 mph N/A   Mostly Cloudy
3:55 AM 60.4 °F 52.0 °F 74% 29.64 in 10.0 mi North 12.7 mph 21.9 mph N/A   Partly Cloudy
4:55 AM 60.1 °F 50.7 °F 71% 29.63 in 10.0 mi North 15.0 mph 26.5 mph N/A   Partly Cloudy
5:55 AM 59.5 °F 49.5 °F 69% 29.63 in 10.0 mi North 16.1 mph 21.9 mph N/A   Partly Cloudy
6:55 AM 59.2 °F 49.1 °F 69% 29.62 in 10.0 mi North 16.1 mph 20.7 mph N/A   Clear
7:55 AM 59.2 °F 48.0 °F 66% 29.63 in 10.0 mi North 11.5 mph 23.0 mph N/A   Clear
8:55 AM 59.5 °F 47.8 °F 65% 29.65 in 10.0 mi North 12.7 mph 23.0 mph N/A   Clear
9:55 AM 61.5 °F 47.3 °F 60% 29.63 in 10.0 mi North 16.1 mph 23.0 mph N/A   Clear
10:55 AM 62.6 °F 48.0 °F 59% 29.63 in 10.0 mi North 17.3 mph 28.8 mph N/A   Clear
11:55 AM 64.8 °F 48.6 °F 56% 29.62 in 10.0 mi North 16.1 mph 27.6 mph N/A   Clear
12:55 PM 66.6 °F 48.6 °F 52% 29.60 in 10.0 mi North 18.4 mph 29.9 mph N/A   Clear
1:55 PM 67.5 °F 48.4 °F 50% 29.59 in 10.0 mi NNW 18.4 mph 25.3 mph N/A   Partly Cloudy
2:55 PM 67.1 °F 48.2 °F 51% 29.58 in 10.0 mi North 13.8 mph 23.0 mph N/A   Mostly Cloudy
3:55 PM 66.9 °F 47.5 °F 50% 29.58 in 10.0 mi North 15.0 mph 21.9 mph N/A   Mostly Cloudy
4:55 PM 66.2 °F 47.7 °F 51% 29.59 in 10.0 mi North 11.5 mph 19.6 mph N/A   Overcast
5:55 PM 66.0 °F 47.8 °F 52% 29.59 in 10.0 mi North 9.2 mph - N/A   Mostly Cloudy
6:55 PM 64.6 °F 48.4 °F 56% 29.60 in 10.0 mi North 6.9 mph - N/A   Mostly Cloudy
7:55 PM 63.9 °F 48.0 °F 56% 29.60 in 10.0 mi North 8.1 mph - N/A   Mostly Cloudy
8:55 PM 61.5 °F 48.7 °F 63% 29.61 in 10.0 mi North 10.4 mph - N/A   Mostly Cloudy
9:55 PM 60.3 °F 49.1 °F 67% 29.61 in 10.0 mi North 6.9 mph - N/A   Mostly Cloudy
10:55 PM 59.9 °F 45.3 °F 59% 29.61 in 10.0 mi NNW 12.7 mph 20.7 mph N/A   Mostly Cloudy
11:55 PM 57.4 °F 44.8 °F 63% 29.62 in 10.0 mi NW 11.5 mph - N/A   Partly Cloudy